Location: Corsier
(46.2637°N, 6.2238°E)
Time: 09:03:46
(UTC+00:00)

Cosmos 2333 - Pass Details

Date: 07 June 2020
Orbit: 829 x 867 km, 70.9° (Epoch: 15 July)

Event Time Altitude Azimuth Distance (km) Brightness Sun altitude
Exits shadow 02:53:05 - 200° (SSW) 2,768 6.3 -7.6°
Reaches altitude 10° 02:53:58 10° 199° (SSW) 2,428 6.0 -7.5°
Maximum altitude 02:59:32 78° 114° (ESE) 855 4.3 -6.8°
Drops below altitude 10° 03:05:10 10° 29° (NNE) 2,461 8.1 -6.1°
Sets 03:07:38 0° 28° (NNE) 3,405 9.0 -5.7°
